{"data":{"norad_id":68017,"epoch":"2026-05-25T03:00:36.122976Z","epoch_age_seconds":58015,"freshness":"FRESH","line1":"1 68017U 26040C   26145.12541809  .00026856  00000+0  83090-3 0  9991","line2":"2 68017  97.2851  94.0917 0001836  97.6771 262.4680 15.33457625 13172","mean_motion":15.33457625,"eccentricity":0.0001836,"inclination_deg":97.2851,"raan_deg":94.0917,"arg_perigee_deg":97.6771,"mean_anomaly_deg":262.468,"bstar":0.0008309,"rev_number":1317,"period_min":93.905431524396,"perigee_km":464.2491188348,"apogee_km":466.76210440178,"semimajor_km":6843.6426116183,"source":"CELESTRAK","updated_at":"2026-05-25T13:38:21.804427Z"}}